BAW15 WSSS-YSSY

Flight info

Callsign BAW15
Flight time N/A
Altitude 35000
Route IDBUD1B IDBUD T24 SURGA M635 MASRI/N0480F370 M635 ATMAP A576 TATUK/N0478F390 A576 APOMA Y52 VELGI Y105 TARAL Y59 RIVET RIVET4
Aircraft B77L/H-SDE1E2E3FGHIJ2J3J4J5M1RWXY/LB1D1

Departure

Time N/A
Airport Singapore Changi Airport (WSSS)

Arrival

Time 2026-05-04 08:33
Airport Sydney Kingsford Smith International Airport (YSSY)
Time Latitude Longitude Altitude Speed Heading
2026-05-04 07:16 -29.47798 142.01528 39124 ft 581 kts 127°
2026-05-04 07:16 -29.50177 142.05275 39121 ft 581 kts 127°
2026-05-04 07:17 -29.54935 142.12778 39119 ft 581 kts 127°
2026-05-04 07:17 -29.59694 142.20298 39122 ft 582 kts 127°
2026-05-04 07:18 -29.64450 142.27827 39124 ft 582 kts 127°
2026-05-04 07:18 -29.69206 142.35370 39146 ft 583 kts 127°
2026-05-04 07:19 -29.73965 142.42931 39126 ft 583 kts 127°
2026-05-04 07:19 -29.78712 142.50490 39110 ft 582 kts 127°
2026-05-04 07:20 -29.83451 142.58048 39105 ft 582 kts 127°
2026-05-04 07:20 -29.88183 142.65610 39111 ft 582 kts 127°
2026-05-04 07:22 -30.08415 142.94620 39114 ft 582 kts 131°
2026-05-04 07:23 -30.13514 143.01898 39105 ft 583 kts 131°
2026-05-04 07:23 -30.18610 143.09196 39110 ft 584 kts 131°
2026-05-04 07:24 -30.23711 143.16506 39111 ft 584 kts 131°
2026-05-04 07:24 -30.28813 143.23825 39112 ft 585 kts 131°
2026-05-04 07:26 -30.49209 143.53221 39098 ft 585 kts 131°
2026-05-04 07:27 -30.54298 143.60590 39100 ft 585 kts 131°
2026-05-04 07:27 -30.59377 143.67958 39105 ft 584 kts 130°
2026-05-04 07:28 -30.64442 143.75321 39096 ft 583 kts 130°
2026-05-04 07:28 -30.69484 143.82663 39088 ft 582 kts 130°
2026-05-04 07:29 -30.74524 143.90016 39093 ft 581 kts 130°
2026-05-04 07:29 -30.79554 143.97367 39091 ft 581 kts 130°
2026-05-04 07:30 -30.84580 144.04726 39094 ft 581 kts 130°
2026-05-04 07:30 -30.89601 144.12092 39098 ft 581 kts 130°
2026-05-04 07:31 -30.94623 144.19474 39099 ft 582 kts 130°
2026-05-04 07:33 -31.14658 144.49061 39084 ft 581 kts 130°
2026-05-04 07:33 -31.19658 144.56481 39086 ft 581 kts 130°
2026-05-04 07:34 -31.24652 144.63904 39094 ft 581 kts 130°
2026-05-04 07:34 -31.29639 144.71332 39088 ft 581 kts 130°
2026-05-04 07:35 -31.34627 144.78777 39084 ft 581 kts 130°
2026-05-04 07:35 -31.39614 144.86234 39096 ft 582 kts 130°
2026-05-04 07:36 -31.44598 144.93698 39101 ft 582 kts 130°
2026-05-04 07:38 -31.64432 145.23558 39088 ft 579 kts 130°
2026-05-04 07:38 -31.69369 145.31027 39082 ft 579 kts 130°
2026-05-04 07:39 -31.74303 145.38505 39085 ft 579 kts 130°
2026-05-04 07:39 -31.79240 145.46002 39084 ft 580 kts 130°
2026-05-04 07:40 -31.84179 145.53517 39086 ft 581 kts 130°
2026-05-04 07:40 -31.89119 145.61047 39089 ft 581 kts 129°
2026-05-04 07:41 -31.94014 145.68526 39084 ft 580 kts 129°
2026-05-04 07:41 -31.98924 145.76044 39084 ft 578 kts 129°
2026-05-04 07:42 -32.03821 145.83553 39075 ft 577 kts 129°
2026-05-04 07:42 -32.08709 145.91063 39080 ft 577 kts 129°
2026-05-04 07:43 -32.13589 145.98577 39084 ft 577 kts 129°
2026-05-04 07:43 -32.17640 146.04826 39084 ft 577 kts 130°
2026-05-04 07:44 -32.22520 146.12366 39078 ft 578 kts 130°
2026-05-04 07:44 -32.27403 146.19927 39079 ft 579 kts 129°
2026-05-04 07:45 -32.32282 146.27493 39075 ft 579 kts 129°
2026-05-04 07:45 -32.37151 146.35066 39063 ft 578 kts 129°
2026-05-04 07:46 -32.42009 146.42635 39075 ft 577 kts 129°
2026-05-04 07:46 -32.46858 146.50203 39067 ft 577 kts 129°
2026-05-04 07:47 -32.51697 146.57770 39078 ft 576 kts 129°
2026-05-04 07:49 -32.71001 146.88114 39098 ft 576 kts 129°
2026-05-04 07:49 -32.75815 146.95720 39073 ft 576 kts 129°
2026-05-04 07:50 -32.80615 147.03319 39064 ft 574 kts 129°
2026-05-04 07:50 -32.85401 147.10911 39070 ft 573 kts 129°
2026-05-04 07:51 -32.90175 147.18501 39072 ft 572 kts 129°
2026-05-04 07:51 -32.94939 147.26088 39073 ft 572 kts 129°
2026-05-04 07:52 -32.99696 147.33681 39071 ft 572 kts 129°
2026-05-04 07:52 -33.04453 147.41288 39076 ft 572 kts 129°
2026-05-04 07:54 -33.23396 147.71743 39069 ft 572 kts 129°
2026-05-04 07:55 -33.28118 147.79374 39077 ft 571 kts 128°
2026-05-04 07:55 -33.32831 147.87007 39078 ft 570 kts 128°
2026-05-04 07:56 -33.37640 147.94543 39067 ft 568 kts 134°
2026-05-04 07:56 -33.42961 148.01486 39081 ft 565 kts 136°
2026-05-04 07:57 -33.48357 148.08344 39080 ft 565 kts 136°
2026-05-04 07:57 -33.53719 148.15237 39099 ft 566 kts 136°
2026-05-04 07:58 -33.59048 148.22173 39079 ft 566 kts 135°
2026-05-04 07:58 -33.64367 148.29126 39088 ft 565 kts 135°
2026-05-04 07:59 -33.69678 148.36076 39086 ft 564 kts 135°
2026-05-04 07:59 -33.74985 148.43027 39088 ft 564 kts 135°
2026-05-04 08:00 -33.80240 148.49928 39071 ft 556 kts 135°
2026-05-04 08:02 -34.00553 148.76713 37073 ft 530 kts 135°
2026-05-04 08:02 -34.03024 148.79988 36795 ft 525 kts 135°
2026-05-04 08:02 -34.05470 148.83230 36490 ft 521 kts 135°
2026-05-04 08:03 -34.07899 148.86452 36145 ft 518 kts 135°
2026-05-04 08:03 -34.10321 148.89663 35750 ft 516 kts 135°
2026-05-04 08:03 -34.12729 148.92862 35361 ft 515 kts 134°
2026-05-04 08:03 -34.15127 148.96060 34971 ft 514 kts 134°
2026-05-04 08:04 -34.17490 148.99211 34673 ft 510 kts 134°
2026-05-04 08:04 -34.19894 149.02415 34384 ft 506 kts 134°
2026-05-04 08:04 -34.22251 149.05557 34073 ft 503 kts 134°
2026-05-04 08:04 -34.24588 149.08677 33749 ft 499 kts 134°
2026-05-04 08:05 -34.26910 149.11781 33409 ft 496 kts 133°
2026-05-04 08:05 -34.29218 149.14870 33078 ft 493 kts 133°
2026-05-04 08:05 -34.31513 149.17941 32768 ft 490 kts 133°
2026-05-04 08:05 -34.33790 149.20991 32462 ft 487 kts 133°
2026-05-04 08:06 -34.36051 149.24024 32156 ft 484 kts 133°
2026-05-04 08:06 -34.38299 149.27041 31846 ft 481 kts 133°
2026-05-04 08:06 -34.40478 149.30095 31501 ft 478 kts 126°
2026-05-04 08:06 -34.42207 149.33507 31148 ft 474 kts 113°
2026-05-04 08:08 -34.46255 149.59758 28911 ft 444 kts 92°
2026-05-04 08:08 -34.46691 149.63457 28593 ft 441 kts 92°
2026-05-04 08:10 -34.49627 149.92261 25980 ft 411 kts 74°
2026-05-04 08:11 -34.49015 149.95586 25697 ft 399 kts 63°
2026-05-04 08:11 -34.46694 150.01456 25093 ft 383 kts 52°
2026-05-04 08:11 -34.45414 150.04276 24809 ft 381 kts 52°
2026-05-04 08:12 -34.44138 150.07086 24523 ft 380 kts 52°
2026-05-04 08:12 -34.42870 150.09891 24268 ft 379 kts 52°
2026-05-04 08:12 -34.41619 150.12692 24100 ft 377 kts 52°
2026-05-04 08:12 -34.40392 150.15441 23816 ft 376 kts 52°
2026-05-04 08:13 -34.39138 150.18254 23461 ft 376 kts 52°
2026-05-04 08:13 -34.37895 150.21044 23158 ft 375 kts 53°
2026-05-04 08:13 -34.36683 150.23772 22901 ft 372 kts 53°
2026-05-04 08:13 -34.35443 150.26558 22623 ft 370 kts 53°
2026-05-04 08:14 -34.34240 150.29256 22312 ft 368 kts 53°
2026-05-04 08:14 -34.33010 150.32012 22025 ft 368 kts 53°
2026-05-04 08:14 -34.31813 150.34694 21773 ft 366 kts 53°
2026-05-04 08:16 -34.23491 150.53297 20114 ft 352 kts 54°
2026-05-04 08:16 -34.22328 150.55889 19868 ft 350 kts 54°
2026-05-04 08:16 -34.21185 150.58436 19627 ft 349 kts 54°
2026-05-04 08:17 -34.20030 150.61008 19396 ft 348 kts 54°
2026-05-04 08:17 -34.18878 150.63571 19162 ft 346 kts 54°
2026-05-04 08:17 -34.17734 150.66116 18955 ft 344 kts 54°
2026-05-04 08:17 -34.16592 150.68653 18730 ft 343 kts 54°
2026-05-04 08:19 -34.08907 150.85742 17517 ft 322 kts 55°
2026-05-04 08:19 -34.07840 150.88116 17312 ft 321 kts 55°
2026-05-04 08:20 -34.06777 150.90476 17077 ft 320 kts 55°
2026-05-04 08:20 -34.05715 150.92831 16894 ft 318 kts 55°
2026-05-04 08:20 -34.04661 150.95172 16669 ft 318 kts 55°
2026-05-04 08:20 -34.03680 150.97554 16410 ft 321 kts 66°
2026-05-04 08:21 -34.03439 151.00275 16107 ft 336 kts 95°
2026-05-04 08:21 -34.04245 151.02931 15849 ft 340 kts 122°
2026-05-04 08:21 -34.05773 151.05096 15244 ft 341 kts 134°
2026-05-04 08:21 -34.07512 151.07085 14502 ft 346 kts 145°
2026-05-04 08:22 -34.09680 151.08245 13776 ft 340 kts 171°
2026-05-04 08:22 -34.11971 151.08791 12901 ft 332 kts 172°
2026-05-04 08:24 -34.27142 151.12312 6548 ft 303 kts 169°
2026-05-04 08:24 -34.28977 151.13369 6222 ft 286 kts 140°
2026-05-04 08:24 -34.30189 151.15226 5901 ft 286 kts 112°
2026-05-04 08:24 -34.30651 151.17569 5253 ft 290 kts 86°
2026-05-04 08:25 -34.30244 151.19944 4485 ft 291 kts 60°
2026-05-04 08:25 -34.29031 151.21865 3729 ft 288 kts 34°
2026-05-04 08:25 -34.27358 151.23053 3350 ft 271 kts 15°
2026-05-04 08:25 -34.25592 151.23548 3159 ft 254 kts
2026-05-04 08:26 -34.23888 151.23847 3017 ft 241 kts
2026-05-04 08:27 -34.14086 151.22694 3021 ft 183 kts 346°
2026-05-04 08:28 -34.12891 151.22374 3000 ft 168 kts 347°
2026-05-04 08:28 -34.11751 151.22071 3027 ft 168 kts 347°
2026-05-04 08:28 -34.10604 151.21769 2971 ft 169 kts 348°
2026-05-04 08:28 -34.09472 151.21473 2785 ft 163 kts 347°
2026-05-04 08:29 -34.08393 151.21192 2614 ft 152 kts 347°
2026-05-04 08:29 -34.07400 151.20935 2559 ft 143 kts 348°
2026-05-04 08:29 -34.06409 151.20679 2461 ft 149 kts 348°
2026-05-04 08:31 -34.00528 151.19085 770 ft 129 kts 353°
2026-05-04 08:33 -33.94728 151.17624 28 ft 52 kts 348°
2026-05-04 08:33 -33.94485 151.17509 29 ft 37 kts 324°
2026-05-04 08:35 -33.94227 151.17289 27 ft 28 kts 346°
2026-05-04 08:35 -33.94082 151.17251 26 ft 24 kts 348°
2026-05-04 08:35 -33.93937 151.17214 23 ft 19 kts 348°
2026-05-04 08:35 -33.93847 151.17190 20 ft 10 kts 348°
2026-05-04 08:37 -33.93499 151.16922 31 ft 6 kts 340°
2026-05-04 08:37 -33.93460 151.16879 29 ft 9 kts 273°
2026-05-04 08:37 -33.93477 151.16805 29 ft 10 kts 255°
2026-05-04 08:38 -33.93478 151.16798 29 ft 0 kts 256°